Location: Logan
(41.7360°N, 111.8340°W)
Time: 01:14:36
(UTC-06:00)

Daily predictions for brighter satellites

Satellite Brightness Start Highest point End
(mag) Time Altitude Azimuth Time Altitude Azimuth Time Altitude Azimuth
Lacrosse 5 rocket 1.8 00:00:47 10° NW 00:05:24 61° NE 00:05:59 56° ENE
Cosmos 1302 Rocket 4.3 00:01:42 10° NNW 00:06:54 57° ENE 00:07:45 50° ESE
Nadezhda 3 Rocket 4.4 00:04:16 32° SSW 00:07:16 60° W 00:13:33 10° N
Cosmos 1825 Rocket 4.1 00:08:08 45° WSW 00:08:46 49° W 00:12:59 10° N
SeaSat 1 4.1 00:07:16 20° E 00:09:07 25° NE 00:13:07 10° N
Cosmos 1953 Rocket 3.6 00:08:57 66° WSW 00:09:17 70° W 00:13:45 10° N
Cosmos 2239 Rocket 4.4 00:03:18 10° N 00:09:30 82° W 00:11:12 51° S
Cosmos 1805 4.5 00:07:44 10° NNW 00:11:15 33° W 00:11:17 33° W
USA 267 3.6 00:06:40 10° ENE 00:12:39 42° SE 00:12:39 42° SE
Cosmos 1821 Rocket 4.1 00:13:48 10° NNW 00:20:05 70° W 00:21:50 48° SSW
NOSS 3-1 (C) 4.0 00:15:07 10° NW 00:22:46 77° WSW 00:25:35 46° SSE
ALOS 2 3.4 00:26:07 40° ENE 00:26:07 40° ENE 00:30:10 10° N
Cosmos 2084 Rocket 4.2 00:27:40 42° NE 00:27:40 42° NE 00:30:22 10° NE
Cosmos-2242 3.1 00:23:12 10° N 00:27:09 73° NW 00:27:09 73° NW
CZ-2C R/B 3.5 00:30:01 49° ESE 00:30:57 55° ENE 00:36:31 10° N
Cosmos 2251 Rocket 4.0 00:35:02 43° WSW 00:36:27 57° WNW 00:41:46 10° NNE
Cosmos 1727 Rocket 4.0 00:35:37 58° SE 00:36:36 68° E 00:42:50 10° NNE
SL-16 R/B 2.4 00:33:15 10° NNW 00:38:47 54° WSW 00:39:17 52° SW
Cosmos 1605 Rocket 3.8 00:36:52 10° N 00:42:59 85° W 00:44:02 63° S
Cosmos 2221 3.9 00:45:24 10° NNE 00:48:52 29° ENE 00:48:52 29° ENE
Cosmos 1378 4.3 00:51:28 43° NNW 00:51:28 43° NNW 00:54:10 10° N
Cosmos 2098 Rocket 3.7 00:48:02 10° NNW 00:53:01 73° W 00:53:36 66° SW
Meteor 2-15 Rocket 4.3 00:52:42 65° SSE 00:53:30 75° E 00:59:35 10° NNE
ATLAS CENTAUR R/B 3.4 00:53:50 10° WNW 00:55:01 17° WNW 00:55:01 17° WNW
ATLAS 2AS CENTAUR R/B 3.9 00:49:14 10° NNW 00:56:55 44° NE 01:02:31 17° ESE
Terra 4.2 00:56:30 11° W 00:57:18 12° W 00:58:57 10° WNW
NOSS 3-1 (A) 4.1 00:49:45 10° NW 00:57:21 64° WSW 00:59:27 50° S
Cosmos 2173 Rocket 4.4 00:51:51 10° N 00:57:45 49° ENE 00:58:52 43° ESE
Cosmos 1153 Rocket 4.4 00:53:03 10° N 00:59:20 88° E 01:00:23 65° S
Cosmos 2322 3.5 01:00:45 10° NNW 01:06:26 86° ENE 01:06:56 75° SE
ARGOS Delta rocket 4.1 01:01:17 10° N 01:06:40 75° WNW 01:07:13 68° WSW
USA 32 4.5 01:09:30 49° W 01:09:59 50° W 01:15:06 10° N
Cosmos 2237 4.2 01:06:25 10° NNW 01:12:07 71° ENE 01:12:51 62° ESE
Meteor 2-1 Rocket 4.2 01:07:03 10° N 01:13:00 86° E 01:13:41 71° SSE
Cosmos 1833 4.3 01:12:28 57° WSW 01:13:24 67° WNW 01:19:05 10° NNE
Cosmos 2360 Rocket 2.1 01:09:29 10° NNW 01:15:08 69° WSW 01:15:18 69° WSW
Cosmos 1459 Rocket 4.0 01:10:20 10° N 01:16:43 71° E 01:17:52 58° SE
Cosmos 2219 3.4 01:19:38 54° ESE 01:19:38 54° ESE 01:25:01 10° NNE
ISS -1.4 01:18:57 10° NW 01:20:51 24° N 01:20:51 24° N
Cosmos 1842 Rocket 4.5 01:20:18 10° NNW 01:23:58 42° WNW 01:23:58 42° WNW
Cosmos 1340 Rocket 3.9 01:26:09 40° NE 01:26:09 40° NE 01:28:54 10° NNE
COSMOS 2428 2.8 01:20:55 10° NNW 01:26:41 69° ENE 01:27:34 59° ESE
Meteor 2-17 Rocket 4.3 01:21:19 10° N 01:27:29 81° E 01:28:22 66° SSE
Cosmos 2322 Rocket 3.8 01:24:21 10° NW 01:28:22 21° W 01:28:22 21° W
Cosmos 2333 4.3 01:25:16 10° NNW 01:31:00 67° ENE 01:31:55 57° ESE
Lacrosse 5 3.7 01:30:37 10° W 01:34:59 28° NNW 01:39:23 10° NNE
Cosmos 1908 4.2 01:31:11 10° N 01:34:09 45° NNE 01:34:09 45° NNE
CZ-2C R/B 3.4 01:32:30 10° N 01:37:46 43° WNW 01:38:53 39° W
H-2A R/B 3.6 01:38:46 10° NNE 01:42:14 38° ENE 01:42:14 38° ENE
Cosmos 2016 Rocket 4.0 01:36:30 10° N 01:42:56 80° E 01:44:07 61° SSE
Cosmos 407 Rocket 3.6 01:44:16 62° E 01:44:16 62° E 01:49:13 10° NNE
Lacrosse 5 rocket 4.0 01:40:52 10° WNW 01:41:40 13° W 01:41:40 13° W
Cosmos 1802 Rocket 3.8 01:39:30 10° N 01:45:47 82° W 01:46:42 66° SSW
SeaSat 1 3.0 01:47:03 45° W 01:47:03 45° W 01:51:10 10° NW
Cosmos 2100 Rocket 4.0 01:40:49 10° NNW 01:46:54 64° W 01:47:43 58° SW
Cosmos 1674 3.7 01:52:33 47° N 01:52:33 47° N 01:55:23 10° N
Cosmos 1356 Rocket 4.2 01:53:14 45° NE 01:53:14 45° NE 01:56:24 10° NNE
Cosmos 1726 3.6 01:49:11 10° N 01:52:00 32° NE 01:52:00 32° NE
USA 267 3.6 01:49:31 10° NE 01:55:56 60° NW 01:59:58 24° WSW
Cosmos 2219 Rocket 2.3 01:51:14 10° NNW 01:56:56 70° ENE 01:58:04 55° ESE
Cosmos 2297 Rocket 3.4 01:57:56 29° ESE 01:58:20 29° ESE 02:03:08 10° NE
Cosmos 2333 Rocket 2.6 01:52:46 10° NNW 01:58:26 59° ENE 02:00:01 44° ESE
ERBS 4.2 02:02:22 30° NNE 02:02:22 30° NNE 02:04:19 10° NE
Cosmos 1980 4.4 01:56:17 10° NNW 02:01:48 48° ENE 02:04:03 32° ESE
Cosmos 676 Rocket 4.1 02:04:08 64° ESE 02:04:20 64° ESE 02:09:34 10° NNE
Cosmos 1190 Rocket 4.0 02:05:42 70° WSW 02:06:05 74° WNW 02:11:25 10° NNE
SL-8 R/B 4.3 02:07:43 41° WNW 02:09:02 55° NNW 02:13:44 10° ENE
CZ-4B R/B 3.6 02:11:23 20° NNW 02:11:23 20° NNW 02:12:33 10° NNW
Cosmos 2228 Rocket 3.6 02:05:52 10° N 02:10:17 53° E 02:10:25 53° E
Cosmos 2061 Rocket 4.4 02:06:32 10° NNW 02:12:27 47° W 02:13:19 44° WSW
Cosmos 2123 Rocket 3.9 02:11:27 62° SSW 02:12:35 84° W 02:18:48 10° N
Landsat 5 4.1 02:15:03 50° WNW 02:15:03 50° WNW 02:18:55 10° NNW
Meteor 2-2 Rocket 4.3 02:09:49 10° N 02:15:28 73° E 02:16:33 57° SE
Cosmos 1300 3.5 02:13:38 10° N 02:16:48 50° NE 02:16:48 50° NE
Cosmos 2237 Rocket 2.5 02:14:16 10° NNW 02:19:51 61° ENE 02:21:49 39° SE
Cosmos 1408 Rocket 3.9 02:20:43 57° NW 02:20:43 57° NW 02:24:37 10° N
NOSS 0 Rocket 3.9 02:14:56 10° NNW 02:21:10 86° ENE 02:22:59 49° SSE
SL-14 R/B 3.8 02:22:02 56° ENE 02:22:02 56° ENE 02:25:35 10° NNE
Cosmos 2233 Rocket 4.1 02:16:16 10° N 02:22:36 71° E 02:24:30 46° SSE
SL-16 R/B 3.9 02:17:54 10° N 02:22:52 30° NE 02:27:47 10° ESE
Cosmos 2221 4.3 02:23:14 10° NW 02:25:44 21° WNW 02:25:44 21° WNW
Cosmos 1500 Rocket 3.9 02:28:31 56° E 02:28:34 56° E 02:32:56 10° NNE
USA 234 3.2 02:24:14 13° SE 02:30:10 87° NE 02:36:45 10° NW
Cosmos 1766 Rocket 4.2 02:30:52 43° WNW 02:30:52 43° WNW 02:34:46 10° N
Cosmos 614 Rocket 4.0 02:34:37 59° SE 02:35:15 64° ESE 02:40:27 10° NNE
Cosmos 2227 Rocket 2.1 02:35:24 61° S 02:36:21 78° ESE 02:42:02 10° NNE
Cosmos 1725 Rocket 4.2 02:33:30 10° NNW 02:39:38 54° W 02:40:51 47° SW
NOSS 2-1 (D) 3.4 02:40:29 72° NNE 02:40:29 72° NNE 02:44:21 10° NE
NOSS 2-1 (C) 3.4 02:40:38 71° NNE 02:40:38 71° NNE 02:44:29 10° NE
CZ-2D R/B 4.3 02:38:00 10° NE 02:41:14 16° E 02:43:59 11° SE
Cosmos 1140 Rocket 3.3 02:42:19 67° SSW 02:43:02 88° WNW 02:48:17 10° NNE
Cosmos 2151 3.0 02:46:13 70° ESE 02:46:16 71° E 02:50:29 10° NNE
ATLAS 2AS CENTAUR R/B 3.1 02:40:28 10° NW 02:48:05 51° WSW 02:49:53 43° SSW
Cosmos 1515 Rocket 3.4 02:44:57 10° NNW 02:49:19 74° W 02:49:19 74° W
Aureole 2 Rocket 2.9 02:46:07 10° NNW 02:49:48 67° NW 02:49:48 67° NW
Cosmos 1743 Rocket 3.7 02:51:11 58° W 02:51:14 58° W 02:55:37 10° N
DELTA 2 R/B (1) 3.5 02:56:33 57° S 02:57:03 59° SSE 03:02:31 10° E
Cosmos 1455 3.3 02:55:36 10° N 02:59:16 39° ENE 03:00:11 33° ESE
Cosmos 1464 Rocket 4.3 02:53:26 10° N 02:59:32 61° E 03:02:54 27° SSE
Cosmos 1241 Rocket 4.4 02:56:05 10° NNW 03:02:34 86° ENE 03:07:04 21° SSE
NOSS 2-1 (E) 3.6 03:02:56 55° WNW 03:03:12 57° NW 03:07:31 10° NNE
Cosmos 1626 2.2 03:04:13 71° E 03:04:13 71° E 03:07:52 10° NNE
Cosmos 1850 Rocket 3.9 03:05:27 55° SSW 03:06:38 88° ESE 03:11:51 10° NNE
Helios 1A Rocket 3.1 03:03:37 10° N 03:07:43 58° WNW 03:07:59 57° W
PSLV R/B 4.3 03:05:18 10° N 03:09:12 38° WNW 03:09:29 37° W
Cosmos 1356 3.8 03:09:30 57° E 03:09:30 57° E 03:12:53 10° NNE
Cosmos 2082 3.7 03:07:51 46° SW 03:09:27 68° WNW 03:15:04 10° NNE
COSMOS 2428 4.5 03:06:46 10° WNW 03:09:34 16° W 03:09:34 16° W
CZ-3B DEB 4.4 03:04:02 31° SSW 03:12:05 73° SE 03:26:15 10° NE
Cosmos 1151 Rocket 3.2 03:08:35 10° NNW 03:12:49 53° W 03:12:56 53° W
Cosmos 1741 Rocket 4.0 03:13:21 50° SSW 03:14:48 82° WNW 03:20:10 10° NNE
Cosmos 2058 2.9 03:15:16 60° W 03:15:30 62° W 03:19:37 10° N
H-2A R/B 4.3 03:15:01 10° NNW 03:18:08 20° WNW 03:18:51 19° W
IRS-P3 4.0 03:14:00 10° NNE 03:19:22 90° ESE 03:21:12 43° SSW
CZ-3A R/B 3.8 03:26:11 10° N 03:28:12 20° NE 03:32:16 10° E
SL-08 R/B 3.3 03:26:31 38° S 03:28:25 80° WSW 03:33:25 10° NNW
CBERS-1 3.9 03:24:43 10° NNE 03:29:52 86° WNW 03:31:45 40° SSW
AQUA 3.7 03:26:04 10° NNE 03:30:51 88° E 03:32:29 42° SSW
Cosmos 1570 Rocket 4.1 03:28:16 10° NNW 03:33:31 58° WSW 03:35:20 38° SSW
ARIANE 5 R/B 3.2 03:30:59 10° NNE 03:35:52 46° E 03:38:45 23° SSE
ADEOS 4.2 03:34:55 10° NNE 03:40:00 51° E 03:43:10 22° SSE
Cosmos 2219 Rocket 3.9 03:36:50 10° WNW 03:39:45 16° W 03:39:45 16° W
Cosmos 2333 Rocket 3.6 03:38:12 10° NW 03:41:58 20° W 03:41:58 20° W
Cosmos 2297 Rocket 3.0 03:39:44 27° WSW 03:42:10 41° WNW 03:47:31 10° N
Cosmos 1869 3.4 03:41:21 10° N 03:45:24 74° E 03:47:19 29° SSE
Cosmos 1703 4.1 03:45:27 32° W 03:45:55 33° WNW 03:49:30 10° N
NPP 3.9 03:42:44 10° N 03:48:00 56° WNW 03:50:23 31° SW
Cosmos 1707 Rocket 3.4 03:45:40 10° N 03:50:03 78° W 03:52:05 31° S
Lacrosse 4 Rocket 1.3 03:49:19 43° SW 03:50:36 77° WNW 03:54:51 10° NNE
SL-16 R/B 2.5 03:45:50 14° SSE 03:51:13 88° WSW 03:57:28 10° NNW
Resurs 1-4 Rocket 2.2 03:47:34 10° NNE 03:52:54 75° ESE 03:56:09 24° S
ATLAS 3B CENTAUR R/B 4.3 03:39:53 10° W 03:57:08 37° SSW 04:04:08 10° SE
ATLAS 5 CENTAUR R/B 3.4 03:54:45 15° SSE 03:57:33 26° ESE 04:01:36 10° ENE
Cosmos 2034 Rocket 4.1 03:53:33 10° NNW 03:59:50 63° W 04:04:08 21° SSW
Cosmos 2237 Rocket 3.6 03:59:36 10° WNW 04:03:20 19° W 04:03:36 18° WSW
Cosmos 1666 Rocket 3.6 04:02:48 31° SSW 04:04:45 63° W 04:09:12 10° N
Cosmos 1486 Rocket 4.4 04:01:25 21° S 04:04:51 60° ESE 04:10:01 10° NNE
CZ-3A R/B 4.0 04:03:52 17° S 04:06:59 23° SSE 04:21:09 10° ESE
SL-16 R/B 2.6 04:01:46 10° NW 04:07:06 42° WSW 04:10:22 22° SSW
Cosmos 332 Rocket 3.8 04:02:21 10° NNW 04:07:13 88° ENE 04:12:06 10° SSE
Cosmos 2242 Rocket 3.7 04:03:40 10° N 04:08:11 77° E 04:12:22 12° SSE
Cosmos 1862 Rocket 4.4 04:05:12 10° N 04:09:24 49° ENE 04:13:35 10° SSE
ADEOS Rocket 3.6 04:02:02 10° N 04:09:34 72° WNW 04:15:24 19° SSW
UNKNOWN OBJECT B 3.6 04:05:48 10° NNE 04:09:42 49° E 04:12:32 17° S
Cosmos 468 Rocket 4.0 04:07:30 10° NNW 04:12:37 60° WSW 04:17:05 13° S
USA 234 4.1 04:11:27 21° SSW 04:13:38 25° SW 04:18:54 10° WNW
Cosmos 1933 Rocket 4.1 04:11:02 15° S 04:14:38 59° E 04:19:01 10° NNE
Cosmos 2227 4.2 04:13:16 22° SSW 04:17:08 90° WSW 04:22:56 10° NNE
Abrixas rocket 4.4 04:17:03 13° SSE 04:18:08 15° SE 04:20:06 10° E
Spot 4 Rocket 4.3 04:14:30 10° N 04:19:33 56° WNW 04:22:49 21° SW
OAO 3 Rocket 4.3 04:19:04 22° SSW 04:21:01 29° SSE 04:25:17 10° ESE
Cosmos 2227 Rocket 4.1 04:17:16 10° W 04:21:04 18° NW 04:24:53 10° N
CZ-2D R/B 2.2 04:16:33 10° N 04:21:43 62° WNW 04:25:19 20° SSW
Tsikada Rocket 4.2 04:17:30 20° SSW 04:21:53 58° W 04:28:14 10° N
UNK 4.2 04:23:28 21° SSW 04:26:08 40° W 04:30:31 10° NNW
Meteor 2-10 Rocket 3.8 04:21:33 10° N 04:26:33 68° ENE 04:31:36 10° SSE
BREEZE-M R/B 3.6 04:23:04 19° SW 04:28:28 69° SSE 04:32:18 10° ENE
CZ-2D R/B 3.6 04:24:26 10° NNE 04:28:31 71° ESE 04:32:07 14° S
MOS 1 Rocket 3.8 04:24:12 10° NNE 04:29:27 74° ESE 04:34:50 10° S
Cosmos 1763 Rocket 3.4 04:24:30 10° NNW 04:29:45 78° WSW 04:34:53 10° SSE
Cosmos 1943 4.0 04:25:54 10° NNW 04:31:27 54° ENE 04:36:57 10° SE
IRS-1D 4.1 04:29:10 10° N 04:34:15 47° WNW 04:38:02 17° SW
Cosmos 1455 4.2 04:32:34 10° NW 04:34:35 14° W 04:35:09 13° W
Cosmos 2263 Rocket 3.1 04:30:48 10° S 04:36:02 44° ESE 04:41:18 10° NE
Cosmos 1892 3.9 04:33:23 10° SSE 04:36:58 41° E 04:40:36 10° NNE
Cosmos 1814 Rocket 4.3 04:34:29 10° NNW 04:39:38 49° WSW 04:44:45 10° S
NOSS 3-4 (A) 4.2 04:33:21 10° NW 04:39:58 43° WSW 04:46:59 10° S
NOSS 3-4 (C) 4.2 04:33:26 10° NW 04:40:05 43° WSW 04:47:06 10° S
Meteor 2-3 Rocket 4.4 04:36:18 10° S 04:41:50 56° E 04:47:28 10° NNE
DELTA 2 R/B (1) 3.5 04:37:47 10° W 04:43:20 71° S 04:48:51 10° ESE
Sich 1 4.4 04:41:23 16° WSW 04:43:43 24° WNW 04:47:18 10° NNW
Cosmos 1503 Rocket 4.3 04:39:17 10° S 04:44:32 70° ESE 04:49:45 10° NNE
MOZ.5/SAFIR/RUBIN 5/SL-8 3.8 04:40:04 10° S 04:44:47 65° W 04:49:33 10° NNW
ORS 1 (USA 231) 4.5 04:43:25 16° W 04:45:43 63° S 04:48:46 10° E
Cosmos 1633 Rocket 4.3 04:44:27 16° WSW 04:47:00 27° WNW 04:50:42 10° NNW
Cosmos 1818 3.6 04:43:55 10° NNW 04:49:24 89° SW 04:54:48 10° SSE
Cosmos 1470 Rocket 3.9 04:46:10 15° SSW 04:49:36 49° WNW 04:53:49 10° N
In-Cosmos 22 Rocket 4.1 04:45:42 10° SSW 04:51:00 77° W 04:56:21 10° N
CZ-3 R/B 4.3 04:04:32 10° W 04:52:51 52° SSW 05:04:06 10° SE
Okean O Rocket 3.1 04:49:13 10° NNE 04:53:13 35° E 04:57:10 10° SSE
Cosmos 220 Rocket 4.5 04:50:19 15° SW 04:53:51 49° WNW 04:58:11 10° N
GP-B 3.3 04:51:15 10° N 04:55:42 74° E 05:00:08 10° S
SL-24 R/B 3.6 04:52:36 10° NNE 04:56:24 87° WNW 05:00:02 10° SSW
Landsat 4 4.3 04:54:49 10° SSE 04:58:34 60° ENE 05:02:21 10° N
Cosmos 1933 3.8 04:55:21 10° NNW 04:59:13 41° W 05:03:05 10° SSW
Cosmos 2285 Rocket 4.0 04:54:26 10° NNW 05:00:42 69° WSW 05:06:57 10° S
Cosmos 2279 Rocket 4.0 04:55:01 10° N 05:01:16 89° W 05:07:31 10° S
Cosmos 1869 Rocket 4.4 04:57:20 10° S 05:01:41 53° E 05:06:02 10° NNE
Cosmos 1634 Rocket 4.2 04:57:25 10° NNW 05:03:22 50° W 05:09:15 10° SSW
Cosmos 1400 Rocket 3.2 05:04:22 10° SSW 05:08:08 46° WNW 05:12:00 10° N
Cosmos 540 Rocket 3.5 05:04:02 10° NNW 05:09:15 87° ENE 05:14:25 10° SSE
Cosmos 371 Rocket 4.2 05:06:53 10° NW 05:10:56 27° W 05:14:58 10° SSW
Cosmos 1825 4.4 05:07:46 10° SSE 05:10:58 26° E 05:14:11 10° NNE
Cosmos 1354 Rocket 4.1 05:06:04 10° SSW 05:11:20 68° WNW 05:16:36 10° NNE
Okean 1-7 3.7 05:07:47 10° N 05:12:00 59° E 05:16:12 10° SSE
PSLV R/B 4.4 05:08:57 10° NNE 05:13:02 48° E 05:17:05 10° S
ARIANE 5 R/B 4.0 05:10:51 10° NNW 05:14:39 22° WNW 05:18:25 10° WSW
Cosmos 2084 4.4 05:13:01 10° S 05:16:44 37° ESE 05:20:18 10° NE
Cosmos 1782 4.0 05:15:45 10° N 05:19:39 48° E 05:23:32 10° SSE
USA 161 2.4 05:19:22 10° SW 05:20:37 15° W 05:21:53 10° NW
Meteor 1-26 Rocket 4.5 05:17:16 10° NNW 05:22:46 51° W 05:28:09 10° SSW
